Time,TemperatureF,DewpointF,PressureIn,WindDirection,WindDirectionDegrees,WindSpeedMPH,WindSpeedGustMPH,Humidity,HourlyPrecipIn,Conditions,Clouds,dailyrainin,SolarRadiationWatts/m^2,SoftwareType,DateUTC
2013-09-01 00:00:00,62.0,61.0,-100.00,SSE,157,2.0,-999.0,96,-99.99,,,-99.99,0.000000,,2013-09-01 05:00:00,
2013-09-01 00:43:00,62.0,61.0,-100.00,SSE,157,2.0,-999.0,96,-99.99,,,-99.99,0.000000,,2013-09-01 05:43:00,
2013-09-01 00:52:00,62.0,61.0,-100.00,SSE,157,2.0,-999.0,96,-99.99,,,-99.99,0.000000,,2013-09-01 05:52:00,
2013-09-01 01:00:00,62.0,61.0,-100.00,SE,135,2.0,-999.0,96,-99.99,,,-99.99,0.000000,,2013-09-01 06:00:00,
2013-09-01 01:42:00,62.0,61.0,-100.00,SE,135,2.0,-999.0,96,-99.99,,,-99.99,0.000000,,2013-09-01 06:42:00,
2013-09-01 01:52:00,62.0,61.0,-100.00,SE,135,2.0,-999.0,96,-99.99,,,-99.99,0.000000,,2013-09-01 06:52:00,
2013-09-01 02:00:00,62.0,61.0,-100.00,SSE,157,2.0,-999.0,96,-99.99,,,-99.99,0.000000,,2013-09-01 07:00:00,
2013-09-01 02:42:00,62.0,61.0,-100.00,SSE,157,2.0,-999.0,96,-99.99,,,-99.99,0.000000,,2013-09-01 07:42:00,
2013-09-01 02:52:00,62.0,61.0,-100.00,SSE,157,2.0,-999.0,96,-99.99,,,-99.99,0.000000,,2013-09-01 07:52:00,
2013-09-01 03:00:00,63.0,62.0,-100.00,SSE,157,3.0,-999.0,96,-99.99,,,-99.99,0.000000,,2013-09-01 08:00:00,
2013-09-01 03:43:00,63.0,62.0,-100.00,SSE,157,3.0,-999.0,96,-99.99,,,-99.99,0.000000,,2013-09-01 08:43:00,
2013-09-01 03:52:00,63.0,62.0,-100.00,SSE,157,3.0,-999.0,96,-99.99,,,-99.99,0.000000,,2013-09-01 08:52:00,
2013-09-01 04:00:00,64.0,63.0,-100.00,SSE,157,4.0,-999.0,96,-99.99,,,-99.99,0.000000,,2013-09-01 09:00:00,
2013-09-01 04:43:00,64.0,63.0,-100.00,SSE,157,4.0,-999.0,96,-99.99,,,-99.99,0.000000,,2013-09-01 09:43:00,
2013-09-01 04:53:00,64.0,63.0,-100.00,SSE,157,4.0,-999.0,96,-99.99,,,-99.99,0.000000,,2013-09-01 09:53:00,
2013-09-01 05:00:00,64.0,63.0,-100.00,SSE,157,4.0,-999.0,96,-99.99,,,-99.99,0.000000,,2013-09-01 10:00:00,
2013-09-01 05:42:00,64.0,63.0,-100.00,SSE,157,4.0,-999.0,96,-99.99,,,-99.99,0.000000,,2013-09-01 10:42:00,
2013-09-01 05:53:00,64.0,63.0,-100.00,SSE,157,4.0,-999.0,96,-99.99,,,-99.99,0.000000,,2013-09-01 10:53:00,
2013-09-01 06:00:00,65.0,64.0,-100.00,SSE,157,3.0,-999.0,96,-99.99,,,-99.99,0.000000,,2013-09-01 11:00:00,
2013-09-01 06:42:00,65.0,64.0,-100.00,SSE,157,3.0,-999.0,96,-99.99,,,-99.99,0.000000,,2013-09-01 11:42:00,
2013-09-01 06:52:00,65.0,64.0,-100.00,SSE,157,3.0,-999.0,96,-99.99,,,-99.99,0.000000,,2013-09-01 11:52:00,
2013-09-01 07:00:00,65.0,64.0,-100.00,SSW,202,2.0,-999.0,96,-99.99,,,-99.99,4.640000,,2013-09-01 12:00:00,
2013-09-01 07:42:00,65.0,64.0,-100.00,SSW,202,2.0,-999.0,96,-99.99,,,-99.99,4.640000,,2013-09-01 12:42:00,
2013-09-01 07:52:00,65.0,64.0,-100.00,SSW,202,2.0,-999.0,96,-99.99,,,-99.99,4.640000,,2013-09-01 12:52:00,
2013-09-01 09:00:00,66.0,64.0,-100.00,SSE,157,3.0,-999.0,95,-99.99,,,-99.99,95.120003,,2013-09-01 14:00:00,
2013-09-01 09:42:00,66.0,64.0,-100.00,SSE,157,3.0,-999.0,95,-99.99,,,-99.99,95.120003,,2013-09-01 14:42:00,
2013-09-01 09:52:00,66.0,64.0,-100.00,SSE,157,3.0,-999.0,95,-99.99,,,-99.99,95.120003,,2013-09-01 14:52:00,
2013-09-01 10:00:00,68.0,65.0,-100.00,SSE,157,4.0,-999.0,93,-99.99,,,-99.99,109.040001,,2013-09-01 15:00:00,
2013-09-01 10:45:00,68.0,65.0,-100.00,SSE,157,4.0,-999.0,93,-99.99,,,-99.99,109.040001,,2013-09-01 15:45:00,
2013-09-01 10:55:00,68.0,65.0,-100.00,SSE,157,4.0,-999.0,93,-99.99,,,-99.99,109.040001,,2013-09-01 15:55:00,
2013-09-01 11:00:00,70.0,66.0,-100.00,SSE,157,3.0,-999.0,87,-99.99,,,-99.99,171.679993,,2013-09-01 16:00:00,
2013-09-01 11:43:00,70.0,66.0,-100.00,SSE,157,3.0,-999.0,87,-99.99,,,-99.99,171.679993,,2013-09-01 16:43:00,
2013-09-01 11:53:00,70.0,66.0,-100.00,SSE,157,3.0,-999.0,87,-99.99,,,-99.99,171.679993,,2013-09-01 16:53:00,
2013-09-01 12:00:00,70.0,66.0,-100.00,SW,225,3.0,-999.0,88,0.05,,,-99.99,91.639999,,2013-09-01 17:00:00,
2013-09-01 12:42:00,70.0,66.0,-100.00,SW,225,3.0,-999.0,88,0.05,,,-99.99,91.639999,,2013-09-01 17:42:00,
2013-09-01 12:52:00,70.0,66.0,-100.00,SW,225,3.0,-999.0,88,0.05,,,-99.99,91.639999,,2013-09-01 17:52:00,
2013-09-01 13:00:00,70.0,67.0,-100.00,South,180,2.0,-999.0,91,0.01,,,-99.99,228.520004,,2013-09-01 18:00:00,
2013-09-01 13:42:00,70.0,67.0,-100.00,South,180,2.0,-999.0,91,0.01,,,-99.99,228.520004,,2013-09-01 18:42:00,
2013-09-01 13:52:00,70.0,67.0,-100.00,South,180,2.0,-999.0,91,0.01,,,-99.99,228.520004,,2013-09-01 18:52:00,
2013-09-01 14:00:00,71.0,67.0,-100.00,West,270,1.0,-999.0,87,-99.99,,,-99.99,163.559998,,2013-09-01 19:00:00,
2013-09-01 14:42:00,71.0,67.0,-100.00,West,270,1.0,-999.0,87,-99.99,,,-99.99,163.559998,,2013-09-01 19:42:00,
2013-09-01 14:52:00,71.0,67.0,-100.00,West,270,1.0,-999.0,87,-99.99,,,-99.99,163.559998,,2013-09-01 19:52:00,
2013-09-01 15:00:00,73.0,66.0,-100.00,SSW,202,2.0,-999.0,78,-99.99,,,-99.99,349.160004,,2013-09-01 20:00:00,
2013-09-01 15:42:00,73.0,66.0,-100.00,SSW,202,2.0,-999.0,78,-99.99,,,-99.99,349.160004,,2013-09-01 20:42:00,
2013-09-01 15:52:00,73.0,66.0,-100.00,SSW,202,2.0,-999.0,78,-99.99,,,-99.99,349.160004,,2013-09-01 20:52:00,
2013-09-01 16:00:00,78.0,67.0,-100.00,SSW,202,3.0,-999.0,68,-99.99,,,-99.99,569.559998,,2013-09-01 21:00:00,
2013-09-01 16:44:00,78.0,67.0,-100.00,SSW,202,3.0,-999.0,68,-99.99,,,-99.99,569.559998,,2013-09-01 21:44:00,
2013-09-01 16:55:00,78.0,67.0,-100.00,SSW,202,3.0,-999.0,68,-99.99,,,-99.99,569.559998,,2013-09-01 21:55:00,
2013-09-01 17:00:00,77.0,66.0,-100.00,West,270,2.0,-999.0,68,-99.99,,,-99.99,447.760010,,2013-09-01 22:00:00,
2013-09-01 17:43:00,77.0,66.0,-100.00,West,270,2.0,-999.0,68,-99.99,,,-99.99,447.760010,,2013-09-01 22:43:00,
2013-09-01 17:53:00,77.0,66.0,-100.00,West,270,2.0,-999.0,68,-99.99,,,-99.99,447.760010,,2013-09-01 22:53:00,
2013-09-01 18:00:00,75.0,62.0,-100.00,NNW,337,4.0,-999.0,63,-99.99,,,-99.99,82.360001,,2013-09-01 23:00:00,
2013-09-01 18:42:00,75.0,62.0,-100.00,NNW,337,4.0,-999.0,63,-99.99,,,-99.99,82.360001,,2013-09-01 23:42:00,
2013-09-01 18:53:00,75.0,62.0,-100.00,NNW,337,4.0,-999.0,63,-99.99,,,-99.99,82.360001,,2013-09-01 23:53:00,
2013-09-01 19:00:00,73.0,60.0,-100.00,NNW,337,4.0,-999.0,64,-99.99,,,-99.99,22.040001,,2013-09-02 00:00:00,
2013-09-01 19:42:00,73.0,60.0,-100.00,NNW,337,4.0,-999.0,64,-99.99,,,-99.99,22.040001,,2013-09-02 00:42:00,
2013-09-01 19:52:00,73.0,60.0,-100.00,NNW,337,4.0,-999.0,64,-99.99,,,-99.99,22.040001,,2013-09-02 00:52:00,
2013-09-01 20:00:00,70.0,60.0,-100.00,North,0,5.0,-999.0,69,-99.99,,,-99.99,3.480000,,2013-09-02 01:00:00,
2013-09-01 20:42:00,70.0,60.0,-100.00,North,0,5.0,-999.0,69,-99.99,,,-99.99,3.480000,,2013-09-02 01:42:00,
2013-09-01 20:52:00,70.0,60.0,-100.00,North,0,5.0,-999.0,69,-99.99,,,-99.99,3.480000,,2013-09-02 01:52:00,
2013-09-01 21:00:00,68.0,60.0,-100.00,NNE,22,5.0,-999.0,76,-99.99,,,-99.99,0.000000,,2013-09-02 02:00:00,
2013-09-01 21:42:00,68.0,60.0,-100.00,NNE,22,5.0,-999.0,76,-99.99,,,-99.99,0.000000,,2013-09-02 02:42:00,
2013-09-01 21:52:00,68.0,60.0,-100.00,NNE,22,5.0,-999.0,76,-99.99,,,-99.99,0.000000,,2013-09-02 02:52:00,
2013-09-01 22:00:00,64.0,61.0,-100.00,NNE,22,6.0,-999.0,88,-99.99,,,-99.99,0.000000,,2013-09-02 03:00:00,
2013-09-01 22:44:00,64.0,61.0,-100.00,NNE,22,6.0,-999.0,88,-99.99,,,-99.99,0.000000,,2013-09-02 03:44:00,
2013-09-01 22:56:00,64.0,61.0,-100.00,NNE,22,6.0,-999.0,88,-99.99,,,-99.99,0.000000,,2013-09-02 03:56:00,
2013-09-01 23:00:00,63.0,60.0,-100.00,NNE,22,4.0,-999.0,89,-99.99,,,-99.99,0.000000,,2013-09-02 04:00:00,
2013-09-01 23:44:00,63.0,60.0,-100.00,NNE,22,4.0,-999.0,89,-99.99,,,-99.99,0.000000,,2013-09-02 04:44:00,
2013-09-01 23:54:00,63.0,60.0,-100.00,NNE,22,4.0,-999.0,89,-99.99,,,-99.99,0.000000,,2013-09-02 04:54:00,